Juneau, WI

8:41 AM CDT on July 22, 2017 (GMT -0500)
Dodge County

Weather History for KUNU - December, 2011

Change the Weather History Date:

Saturday, December 10, 2011

  Actual Average Record
Temperature  
Mean Temperature 18 °F -  
Max Temperature 28 °F 34 °F 54 °F (2015)
Min Temperature 8 °F 22 °F -14 °F (1978)
Degree Days  
Heating Degree Days 47    
Moisture  
Dew Point 3 °F    
Average Humidity 56    
Maximum Humidity 73    
Minimum Humidity 29    
Precipitation  
Precipitation 0.00 in - - ()
Sea Level Pressure  
Sea Level Pressure 30.38 in    
Wind  
Wind Speed 9 mph (SSW)    
Max Wind Speed 18 mph    
Max Gust Speed 24 mph    
Visibility 10 miles    
Events      
Averages and records for this station are not official NWS values.
T = Trace of Precipitation, MM = Missing Value Source: NWS Daily Summary

Daily Weather History Graph

Daily Weather History Graph

Search for Another Location

Airport or City:

Trip Planner

Search our weather history database for the weather conditions in past years. The results will help you decide how hot, cold, wet, or windy it might be!

Date:

Astronomy

Dec. 10, 2011 Rise Set
Actual Time 7:16 AM CST 4:18 PM CST
Civil Twilight 6:43 AM CST 4:51 PM CST
Nautical Twilight 6:07 AM CST 5:27 PM CST
Astronomical Twilight 5:33 AM CST 6:01 PM CST
Moon 4:31 PM CST (12/10) 7:16 AM CST (12/10)
Length of Visible Light 10h 07m
Length of Day
9h 02m
Full, 100% of the Moon is Illuminated
Dec 10
Full
Dec 17
Last Quarter
Dec 24
New
Jan 1
First Quarter
Jan 9
Full

Hourly Weather History & Observations

Time (CST) Temp. Windchill Dew Point Humidity Pressure Visibility Wind Dir Wind Speed Gust Speed Precip Events Conditions
12:15 AM 10.4 °F 0.8 °F 1.4 °F 67% 30.40 in 10.0 mi WSW 5.8 mph - N/A   Clear
12:35 AM 10.4 °F 2.2 °F 1.4 °F 67% 30.40 in 10.0 mi WSW 4.6 mph - N/A   Clear
12:55 AM 10.4 °F 4.0 °F 1.4 °F 67% 30.39 in 10.0 mi SW 3.5 mph - N/A   Clear
1:15 AM 8.6 °F 2.0 °F 1.4 °F 73% 30.39 in 10.0 mi SW 3.5 mph - N/A   Clear
1:35 AM 8.6 °F 0.1 °F 1.4 °F 73% 30.40 in 10.0 mi SW 4.6 mph - N/A   Clear
1:55 AM 8.6 °F 0.1 °F 1.4 °F 73% 30.40 in 10.0 mi SW 4.6 mph - N/A   Clear
2:15 AM 8.6 °F -1.3 °F 1.4 °F 73% 30.40 in 10.0 mi SSW 5.8 mph - N/A   Clear
2:35 AM 8.6 °F 0.1 °F 1.4 °F 73% 30.40 in 10.0 mi SSW 4.6 mph - N/A   Clear
2:55 AM 8.6 °F 0.1 °F 1.4 °F 73% 30.39 in 10.0 mi SSW 4.6 mph - N/A   Clear
3:15 AM 8.6 °F 0.1 °F 1.4 °F 73% 30.40 in 10.0 mi SW 4.6 mph - N/A   Clear
3:35 AM 8.6 °F -2.6 °F 1.4 °F 73% 30.40 in 10.0 mi SW 6.9 mph - N/A   Clear
3:55 AM 8.6 °F -1.3 °F 1.4 °F 73% 30.39 in 10.0 mi SW 5.8 mph - N/A   Clear
4:15 AM 8.6 °F -1.3 °F 1.4 °F 73% 30.39 in 10.0 mi SW 5.8 mph - N/A   Clear
4:35 AM 8.6 °F 0.1 °F 1.4 °F 73% 30.39 in 10.0 mi SW 4.6 mph - N/A   Clear
4:55 AM 8.6 °F -3.7 °F 1.4 °F 73% 30.40 in 10.0 mi SW 8.1 mph - N/A   Clear
5:15 AM 8.6 °F -3.7 °F 1.4 °F 73% 30.40 in 10.0 mi SW 8.1 mph - N/A   Clear
5:35 AM 8.6 °F -2.6 °F 1.4 °F 73% 30.41 in 10.0 mi SW 6.9 mph - N/A   Clear
6:15 AM 8.6 °F -1.3 °F 1.4 °F 73% 30.41 in 10.0 mi SW 5.8 mph - N/A   Clear
6:35 AM 8.6 °F -3.7 °F 1.4 °F 73% 30.42 in 10.0 mi SW 8.1 mph - N/A   Clear
6:55 AM 8.6 °F -2.6 °F 1.4 °F 73% 30.42 in 10.0 mi SW 6.9 mph - N/A   Clear
7:15 AM 8.6 °F -1.3 °F 1.4 °F 73% 30.43 in 10.0 mi SW 5.8 mph - N/A   Clear
7:35 AM 8.6 °F 0.1 °F 1.4 °F 73% 30.43 in 10.0 mi SW 4.6 mph - N/A   Clear
7:55 AM 10.4 °F -1.5 °F 1.4 °F 67% 30.43 in 10.0 mi SSW 8.1 mph - N/A   Clear
8:15 AM 10.4 °F -1.5 °F 3.2 °F 73% 30.43 in 10.0 mi SW 8.1 mph - N/A   Clear
8:35 AM 12.2 °F -0.2 °F 3.2 °F 67% 30.44 in 10.0 mi SW 9.2 mph - N/A   Clear
8:55 AM 12.2 °F 0.7 °F 3.2 °F 67% 30.44 in 10.0 mi SSW 8.1 mph - N/A   Clear
9:15 AM 14.0 °F 2.0 °F 3.2 °F 62% 30.44 in 10.0 mi SSW 9.2 mph - N/A   Clear
9:35 AM 15.8 °F 4.2 °F 3.2 °F 58% 30.44 in 10.0 mi SSW 9.2 mph - N/A   Scattered Clouds
9:55 AM 17.6 °F 6.4 °F 3.2 °F 53% 30.44 in 10.0 mi SSW 9.2 mph - N/A   Scattered Clouds
10:15 AM 19.4 °F 7.9 °F 3.2 °F 49% 30.44 in 10.0 mi SW 10.4 mph - N/A   Scattered Clouds
10:35 AM 19.4 °F 6.6 °F 3.2 °F 49% 30.43 in 10.0 mi SW 12.7 mph 17.3 mph N/A   Scattered Clouds
10:55 AM 21.2 °F 7.8 °F 1.4 °F 42% 30.42 in 10.0 mi SSW 15.0 mph - N/A   Clear
11:15 AM 21.2 °F 7.3 °F 1.4 °F 42% 30.41 in 10.0 mi WSW 16.1 mph - N/A   Clear
11:35 AM 23.0 °F 10.6 °F 1.4 °F 39% 30.40 in 10.0 mi SW 13.8 mph - N/A   Clear
11:55 AM 23.0 °F 9.6 °F 1.4 °F 39% 30.39 in 10.0 mi SW 16.1 mph 19.6 mph N/A   Clear
12:15 PM 24.8 °F 12.9 °F -2.2 °F 31% 30.38 in 10.0 mi SW 13.8 mph 19.6 mph N/A   Clear
12:35 PM 24.8 °F 11.5 °F -0.4 °F 34% 30.37 in 10.0 mi SSW 17.3 mph - N/A   Clear
12:55 PM 26.6 °F 14.7 °F -2.2 °F 29% 30.37 in 10.0 mi SW 15.0 mph - N/A   Clear
1:15 PM 26.6 °F 15.7 °F -0.4 °F 31% 30.37 in 10.0 mi SW 12.7 mph - N/A   Clear
1:35 PM 26.6 °F 15.7 °F -0.4 °F 31% 30.36 in 10.0 mi SSW 12.7 mph 18.4 mph N/A   Clear
1:55 PM 26.6 °F 15.7 °F -0.4 °F 31% 30.35 in 10.0 mi SSW 12.7 mph - N/A   Clear
2:15 PM 26.6 °F 16.2 °F -0.4 °F 31% 30.35 in 10.0 mi SSW 11.5 mph - N/A   Scattered Clouds
2:35 PM 26.6 °F 14.7 °F 1.4 °F 34% 30.35 in 10.0 mi SSW 15.0 mph - N/A   Mostly Cloudy
2:55 PM 28.4 °F 17.0 °F 1.4 °F 31% 30.35 in 10.0 mi South 15.0 mph - N/A   Mostly Cloudy
3:35 PM 26.6 °F 14.3 °F 3.2 °F 37% 30.35 in 10.0 mi SSW 16.1 mph - N/A   Overcast
3:55 PM 26.6 °F 13.8 °F 5.0 °F 40% 30.32 in 10.0 mi South 17.3 mph - N/A   Overcast
4:15 PM 26.6 °F 14.3 °F 3.2 °F 37% 30.33 in 10.0 mi South 16.1 mph 20.7 mph N/A   Overcast
4:35 PM 26.6 °F 14.3 °F 5.0 °F 40% 30.33 in 10.0 mi SSW 16.1 mph 20.7 mph N/A   Scattered Clouds
4:55 PM 24.8 °F 13.4 °F 5.0 °F 43% 30.33 in 10.0 mi South 12.7 mph - N/A   Clear
5:15 PM 24.8 °F 13.4 °F 6.8 °F 46% 30.33 in 10.0 mi South 12.7 mph - N/A   Mostly Cloudy
5:35 PM 24.8 °F 11.9 °F 6.8 °F 46% 30.32 in 10.0 mi South 16.1 mph - N/A   Overcast
5:55 PM 24.8 °F 11.9 °F 8.6 °F 50% 30.32 in 10.0 mi South 16.1 mph - N/A   Overcast
6:15 PM 24.8 °F 12.9 °F 8.6 °F 50% 30.32 in 10.0 mi South 13.8 mph - N/A   Mostly Cloudy
6:35 PM 24.8 °F 13.4 °F 8.6 °F 50% 30.31 in 10.0 mi South 12.7 mph - N/A   Overcast
6:55 PM 24.8 °F 13.4 °F 8.6 °F 50% 30.32 in 10.0 mi South 12.7 mph - N/A   Mostly Cloudy
7:15 PM 24.8 °F 11.9 °F 10.4 °F 54% 30.33 in 10.0 mi South 16.1 mph - N/A   Overcast
7:35 PM 24.8 °F 11.9 °F 10.4 °F 54% 30.33 in 10.0 mi SSW 16.1 mph 23.0 mph N/A   Overcast
7:55 PM 23.0 °F 9.2 °F 10.4 °F 59% 30.32 in 10.0 mi SSW 17.3 mph 24.2 mph N/A   Scattered Clouds
8:15 PM 23.0 °F 8.7 °F 10.4 °F 59% 30.32 in 10.0 mi SSW 18.4 mph - N/A   Clear
8:35 PM 23.0 °F 10.6 °F 12.2 °F 63% 30.32 in 10.0 mi South 13.8 mph - N/A   Clear
8:55 PM 23.0 °F 9.6 °F 12.2 °F 63% 30.32 in 10.0 mi SSW 16.1 mph 21.9 mph N/A   Clear
9:15 PM 23.0 °F 10.6 °F 14.0 °F 68% 30.32 in 10.0 mi SSW 13.8 mph 17.3 mph N/A   Clear
9:35 PM 23.0 °F 10.6 °F 14.0 °F 68% 30.32 in 10.0 mi SSW 13.8 mph - N/A   Clear
9:55 PM 23.0 °F 11.1 °F 15.8 °F 74% 30.32 in 10.0 mi SSW 12.7 mph - N/A   Clear
10:15 PM 23.0 °F 10.6 °F 15.8 °F 74% 30.31 in 10.0 mi SSW 13.8 mph - N/A   Clear
10:35 PM 23.0 °F 10.6 °F 15.8 °F 74% 30.31 in 10.0 mi SSW 13.8 mph - N/A   Clear
10:55 PM 23.0 °F 10.1 °F 17.6 °F 80% 30.30 in 10.0 mi SSW 15.0 mph - N/A   Clear
11:15 PM 23.0 °F 10.1 °F 17.6 °F 80% 30.30 in 10.0 mi SSW 15.0 mph 18.4 mph N/A   Clear
11:35 PM 23.0 °F 10.6 °F 17.6 °F 80% 30.30 in 10.0 mi SSW 13.8 mph - N/A   Clear
11:55 PM 23.0 °F 11.7 °F 17.6 °F 80% 30.30 in 10.0 mi SSW 11.5 mph - N/A   Clear